SCP
0 0 0 0 0 0 0 0 0 1 0 1 1 4 1 0 0 0 -0 0 0 0 0 0 0 0 0 0 0 0 0 0 1 0 0 0 0 0 0 0 0 0 0 0
0 0 0 0 0 0 0 -0 0 0 1 0 0 1 0 0 0 0 0 0 0 0 0 1 1 0 0 0 1 1 0 0 1 1 0 0 1 0 0 0 0 0 0 0
0 0 0 0 0 -0 0 0 0 0 1 5 3 2 3 0 0 0 0 0 0 0 1 1 1 1 1 1 1 1 1 0 1 1 1 1 0 0 0 0 0 0 0 0
0 0 0 0 0 0 0 1 1 0 0 1 3 1 0 1 1 1 1 1 1 2 1 1 1 1 1 1 2 2 1 1 1 0 0 1 0 0 0 0 0 0 0 0
0 0 0 0 0 0 -0 3 2 0 -0 -0 -0 -0 0 0 1 1 0 0 0 1 3 5 3 4 3 2 3 3 2 1 1 0 0 0 0 0 0 0 0 0 0 0
0 0 -0 0 0 -0 0 2 5 3 2 1 -0 1 1 1 1 1 1 1 1 2 3 3 4 4 4 3 3 4 4 3 2 1 1 0 0 0 0 0 0 0 0 0
0 0 0 -0 -0 -0 0 1 4 1 1 1 2 3 1 1 1 1 1 1 1 3 2 2 2 3 0 0 0 0 1 3 3 2 1 1 1 1 1 0 0 0 0 0
0 0 0 0 0 0 1 1 0 0 1 1 1 1 1 0 1 1 1 1 2 3 3 1 0 0 0 0 0 0 -0 2 3 2 1 1 1 1 1 1 1 1 1 0
1 2 2 2 1 3 3 2 0 0 1 1 0 0 1 1 1 1 1 2 2 2 3 2 0 -0 0 0 0 0 -0 0 1 1 1 1 1 1 1 1 1 1 1 1
0 0 -0 0 0 1 1 1 1 1 1 0 1 0 1 1 1 1 1 2 2 2 2 2 3 2 2 1 1 1 0 0 0 0 1 1 1 1 1 2 1 1 0 1
0 1 1 0 0 0 0 1 0 1 1 1 1 1 1 1 1 1 1 1 1 1 1 1 1 1 1 1 1 1 1 1 1 1 1 1 1 1 1 1 1 1 1 0
0 -0 1 0 0 0 0 0 0 0 0 0 0 0 1 1 1 0 0 0 0 0 0 0 0 0 0 1 1 1 2 2 2 1 1 1 2 0 0 0 0 0 0 0
-0 -0 0 0 0 0 0 0 0 -0 0 0 0 0 0 0 0 0 0 0 0 0 0 0 0 0 0 0 0 0 0 0 1 1 2 1 1 0 0 0 0 0 0 0
0 -0 -0 -0 0 -0 -0 -0 -0 0 0 -0 0 0 0 0 0 0 0 0 0 0 -0 0 0 0 0 0 0 0 0 0 0 0 0 1 2 1 1 0 0 0 0 0
0 0 0 0 -0 -0 0 0 0 0 0 0 0 0 0 0 0 0 0 0 0 0 0 0 0 0 0 0 0 0 0 0 0 0 0 0 0 0 0 0 0 0 0 0
0 0 0 0 -0 0 -0 0 0 0 0 0 0 0 0 0 0 0 0 0 0 0 0 0 0 0 0 0 0 0 0 0 0 0 -0 0 0 0 0 0 0 0 0 0
0 0 -0 0 0 0 0 0 0 0 0 0 0 0 0 0 0 0 0 0 0 0 0 0 0 0 0 -0 -0 0 0 0 0 0 0 -0 -0 -0 -0 -0 -0 0 0 0
0 0 0 0 0 0 0 0 0 0 0 0 0 0 0 0 0 0 0 0 0 0 0 0 0 0 0 0 0 -0 -0 0 0 -0 -0 0 0 0 -0 -0 0 0 0 -0
0 0 0 0 0 0 0 0 0 0 0 0 0 0 0 0 0 0 0 0 0 0 0 0 0 0 0 0 0 0 0 -0 -0 0 0 0 -0 0 0 0 0 0 0 0
0 0 0 0 0 0 0 0 0 0 0 0 0 0 0 0 0 0 0 0 0 0 0 0 0 0 0 0 0 0 0 0 0 0 0 0 0 0 0 0 0 0 0 0
0 0 0 0 0 0 -0 0 0 0 0 0 0 0 0 0 0 0 0 0 0 0 0 0 0 0 0 0 0 0 0 0 0 0 0 0 0 0 0 0 0 0 0 0
0 0 0 0 0 0 0 0 0 0 0 0 0 0 0 0 0 0 0 0 0 0 0 0 0 0 0 0 0 0 0 0 0 0 0 0 0 0 0 0 0 0 0 0
0 0 0 0 0 0 0 0 0 0 0 0 0 0 0 0 0 0 0 0 -0 0 0 0 0 0 0 0 0 0 0 0 0 0 0 0 0 0 0 0 0 0 0 0
0 0 0 0 0 0 0 0 0 0 0 0 0 0 0 0 0 0 0 0 -0 -0 -0 -0 -0 -0 0 -0 -0 0 0 0 0 0 0 0 0 0 0 0 0 -0 0 0
0 0 0 0 0 0 0 0 0 0 0 0 0 0 0 0 0 -0 0 0 0 0 0 0 0 -0 -0 -0 0 0 -0 -0 -0 -0 -0 0 0 -0 -0 -0 0 0 0 0
0 0 0 0 0 0 0 0 0 0 0 0 0 0 0 0 0 0 -0 -0 -0 -0 0 0 0 0 -0 0 -0 -0 -0 -0 -0 -0 -0 -0 0 0 0 0 0 0 0 0
0 0 0 0 0 0 0 0 0 0 0 0 0 0 0 0 0 0 0 0 0 0 0 0 0 -0 -0 0 0 0 0 0 0 0 0 0 0 0 0 0 0 0 0 0
Wind_Speed_500mb
32 42 40 34 29 41 36 38 31 15 19 35 31 32 19 20 27 30 33 30 27 25 25 22 23 26 31 34 40 39 34 32 31 30 29 26 27 24 21 17 21 18 14 9
34 33 35 32 34 36 41 45 39 33 28 43 39 31 24 2 21 29 28 27 26 21 24 28 30 30 30 33 40 40 38 35 34 37 35 34 31 30 27 28 27 27 23 15
30 35 36 28 36 44 23 16 22 33 29 27 28 21 37 11 12 17 17 18 24 24 23 31 33 34 38 39 42 46 43 43 46 44 42 39 33 33 31 31 30 29 27 25
20 23 30 21 46 37 8 37 21 52 46 34 9 29 29 16 16 20 17 13 13 9 11 21 30 36 38 42 40 42 44 48 52 50 49 44 39 37 32 32 32 32 31 30
19 22 13 24 22 30 62 34 34 20 62 75 63 50 26 19 23 19 15 14 16 19 14 12 20 32 45 45 48 48 53 60 56 47 50 48 46 44 38 35 35 34 33 31
20 25 11 11 13 45 54 17 31 36 29 20 47 23 15 19 19 13 20 19 24 18 14 21 25 26 37 45 52 62 59 59 55 53 47 51 47 45 42 37 34 33 31 30
24 21 10 13 15 34 23 11 29 31 37 37 26 27 21 16 15 16 20 22 20 28 23 25 27 23 43 47 46 57 65 68 57 53 47 50 48 45 42 40 34 33 32 32
25 27 19 21 24 10 14 18 34 26 34 32 29 22 21 24 26 25 25 25 24 20 25 30 33 33 32 44 62 101 124 71 65 55 47 48 52 47 44 44 42 42 38 37
14 12 26 37 36 29 33 33 19 24 23 27 23 21 23 25 26 26 30 30 26 24 22 23 32 29 27 26 29 51 64 69 62 43 39 41 51 52 50 50 48 46 46 46
7 17 26 34 35 34 32 25 20 22 25 23 22 21 22 23 25 29 31 32 31 26 21 23 24 23 22 20 22 25 21 18 25 26 31 39 50 50 54 53 53 55 47 42
3 15 41 28 34 35 32 28 24 25 26 24 19 20 19 22 26 27 26 32 28 25 22 30 29 25 23 23 28 28 16 17 22 21 35 45 42 42 44 54 55 50 40 38
2 55 42 27 29 31 30 26 24 25 23 20 19 16 21 18 21 24 27 27 29 22 20 21 31 32 30 29 27 25 24 18 27 32 39 39 42 43 54 59 43 42 42 38
23 34 41 26 25 25 23 20 18 19 20 23 26 21 14 15 16 17 20 19 25 27 26 23 28 30 31 32 34 27 28 28 23 31 28 40 45 50 52 41 45 47 37 31
22 28 21 20 21 16 14 12 9 12 24 26 26 20 17 18 16 14 14 15 19 24 26 23 24 26 32 35 44 46 39 35 28 19 27 26 19 21 22 22 21 19 17 12
7 16 21 12 2 9 8 6 8 11 24 22 16 16 15 16 15 15 13 12 16 21 24 25 23 27 28 31 37 38 41 45 43 36 31 19 23 20 10 21 24 30 22 21
6 4 3 2 4 1 2 23 30 25 18 17 10 10 9 4 5 6 13 12 5 4 8 13 16 15 16 19 26 32 36 40 36 41 46 37 27 22 21 15 14 24 8 12
3 7 8 18 15 15 5 15 6 8 10 5 5 6 6 10 8 11 14 14 14 17 25 27 23 20 20 28 27 18 22 28 32 29 36 17 19 16 8 19 14 12 16 27
4 8 10 10 11 12 8 10 6 3 7 5 4 7 14 10 19 14 13 15 18 22 22 15 29 31 30 27 31 31 34 30 30 22 33 25 17 13 14 18 22 11 10 19
4 6 8 12 8 1 5 6 6 5 8 4 7 12 16 5 12 18 22 21 20 17 17 28 33 36 31 31 34 38 37 34 36 27 27 26 21 18 27 23 10 10 27 21
6 7 17 11 6 9 5 6 9 6 7 6 10 10 11 12 15 17 21 17 16 22 37 28 27 20 22 27 33 35 35 35 27 27 26 22 12 14 11 26 26 36 37 32
10 9 15 9 11 18 22 9 15 18 2 4 10 10 16 16 12 11 10 11 19 21 21 24 22 27 26 26 24 20 20 22 16 23 25 13 4 18 30 30 31 31 32 24
15 13 15 16 17 13 17 2 8 9 12 11 8 10 10 6 7 9 7 9 12 17 14 19 24 23 20 14 14 15 13 11 3 5 3 8 19 31 30 24 25 26 26 20
9 12 15 14 15 18 11 3 3 4 6 6 6 2 1 1 5 9 4 12 11 13 18 20 29 24 17 13 17 12 12 9 11 12 15 17 25 28 27 31 29 29 29 27
3 10 14 15 15 10 9 7 4 2 3 3 4 4 2 3 2 4 8 9 10 16 25 24 26 34 44 43 29 27 30 27 22 20 21 27 36 37 37 27 26 28 27 26
11 14 17 20 10 9 10 12 9 10 8 5 5 7 6 5 6 8 6 7 13 5 1 20 22 23 31 32 36 34 34 37 40 39 37 34 33 32 27 26 18 18 18 17
14 17 11 12 16 17 15 16 14 20 12 9 8 10 9 7 7 8 9 10 7 14 13 15 14 8 11 9 15 17 25 22 20 14 10 13 17 16 15 17 16 15 15 16
23 16 11 10 13 12 16 18 17 17 17 15 13 11 8 4 2 3 8 10 5 4 4 5 9 9 6 7 10 9 8 5 10 16 13 11 12 13 13 12 13 15 14 14
Wind_Direction_500mb
283 254 270 280 233 261 243 253 250 122 109 94 72 343 348 151 160 153 151 163 165 178 188 190 183 194 197 200 196 213 196 191 200 184 197 191 199 187 187 177 178 193 179 215
278 273 259 260 253 248 256 241 244 222 135 146 153 126 83 125 159 155 160 174 173 193 199 202 199 198 196 194 198 200 195 193 203 190 200 201 199 191 189 190 193 193 184 182
251 250 264 260 242 261 253 319 264 221 106 69 80 61 60 21 76 118 154 176 181 191 208 211 218 216 210 207 210 203 201 194 212 201 201 201 198 195 197 195 211 208 197 190
281 282 257 340 357 321 269 102 122 108 108 96 29 69 66 39 69 60 40 29 28 80 242 227 227 231 232 224 224 220 204 204 215 209 200 199 201 199 201 198 214 210 208 196
281 272 326 313 11 357 333 69 43 74 133 153 152 131 119 88 56 70 39 12 355 346 331 306 244 242 246 235 223 217 219 220 223 218 208 202 204 201 204 204 209 223 214 208
263 277 215 240 332 322 332 72 23 67 67 66 161 114 83 72 64 51 54 40 25 24 329 301 265 249 243 233 235 227 222 232 222 224 216 208 211 205 204 207 214 217 219 219
240 251 122 179 210 47 328 13 60 45 61 60 64 68 77 59 51 42 38 27 35 38 23 350 321 290 240 239 248 284 267 220 212 221 219 212 214 211 206 209 211 214 219 225
250 252 223 130 101 174 158 62 55 65 67 76 68 56 53 44 35 29 27 27 25 14 354 341 341 334 294 294 293 291 322 210 204 213 214 217 218 216 213 212 213 215 223 227
328 60 81 70 103 82 84 76 64 73 67 63 67 52 47 35 24 20 21 21 18 11 355 333 335 353 349 335 290 283 315 315 212 201 216 217 219 221 218 217 216 219 223 231
355 97 105 103 101 91 93 92 83 69 66 67 47 47 44 35 28 22 21 21 19 17 346 333 350 350 329 325 291 301 316 290 249 215 215 220 222 225 225 225 226 225 228 235
355 199 105 99 104 106 95 75 61 59 52 41 43 18 29 30 29 21 17 11 16 13 0 332 316 350 357 349 327 323 279 269 278 251 237 231 231 235 237 236 232 238 241 245
314 245 95 111 105 98 85 72 64 62 52 40 31 14 25 28 23 19 15 11 19 18 18 329 329 330 326 338 324 317 315 287 249 248 250 242 232 240 245 247 244 253 243 234
268 90 113 111 84 82 85 81 84 83 70 52 33 25 31 3 354 18 7 18 26 27 23 26 352 341 352 7 6 341 315 314 305 267 270 264 254 254 253 248 240 234 232 240
119 120 110 97 99 94 91 90 79 81 88 62 47 44 38 37 25 13 16 29 21 26 28 34 45 35 21 20 26 23 18 17 12 323 287 262 274 258 207 176 165 166 160 147
110 57 99 100 126 148 53 360 327 93 90 80 52 34 24 34 32 35 42 38 57 63 57 49 37 33 32 24 14 14 10 26 29 29 33 58 75 87 70 151 144 149 107 109
101 40 7 188 248 95 30 23 78 89 96 83 70 8 348 350 25 28 39 57 72 342 13 17 18 18 27 17 1 360 2 353 354 23 37 42 11 341 47 46 108 89 126 191
321 306 298 68 49 7 356 63 64 114 104 54 49 8 353 334 332 330 314 296 300 300 304 321 316 303 322 334 341 334 342 338 350 335 345 354 47 85 112 124 146 173 137 129
245 328 332 326 348 81 73 346 242 190 115 125 347 331 336 340 316 319 322 333 312 311 308 310 314 310 305 308 306 318 320 324 336 325 305 302 289 245 273 266 171 169 159 151
210 304 302 308 308 95 181 178 235 246 165 80 345 356 329 340 328 309 304 320 310 314 302 309 308 312 317 314 311 307 305 304 306 318 351 331 289 311 220 196 190 106 127 119
302 295 298 327 312 22 190 193 223 221 50 8 1 344 316 318 341 336 316 306 291 302 299 317 322 332 306 303 298 306 305 302 305 301 312 305 318 330 328 109 114 121 119 129
353 8 31 349 322 266 304 77 45 96 81 4 342 321 303 312 321 309 326 312 321 319 348 350 338 314 314 315 328 323 310 298 283 291 290 307 282 97 113 115 125 132 139 127
25 27 357 336 331 311 312 356 342 20 18 4 310 304 317 360 323 344 330 357 357 5 5 344 336 336 338 5 353 347 358 359 341 5 24 111 130 138 132 126 112 116 110 100
332 337 316 294 316 306 275 127 85 38 8 304 288 262 250 16 12 4 19 16 18 1 15 14 33 32 34 26 22 33 44 38 39 69 118 132 136 124 120 122 117 106 97 102
314 311 305 290 291 266 236 172 188 164 217 261 158 212 178 259 300 350 19 15 63 67 52 47 49 54 44 51 58 65 69 72 82 98 112 122 117 101 98 93 97 89 93 98
280 298 295 278 272 246 204 197 200 189 177 220 196 153 151 51 118 84 100 43 30 39 99 28 54 68 59 54 62 65 67 84 87 88 90 87 84 86 90 98 119 118 111 109
283 286 315 280 248 232 210 209 234 219 187 207 214 210 174 196 158 133 115 131 94 98 88 52 45 69 85 78 105 101 88 85 86 105 101 101 107 108 116 116 118 120 123 117
254 237 272 260 240 225 213 218 224 210 208 203 208 213 220 72 167 221 220 269 220 145 84 74 65 52 81 85 101 80 72 72 68 116 114 126 144 142 142 146 146 136 136 139
Wind_Speed_850mb
32 42 40 34 29 41 36 38 31 15 19 35 31 32 19 20 27 30 33 30 27 25 25 22 23 26 31 34 40 39 34 32 31 30 29 26 27 24 21 17 21 18 14 9
34 33 35 32 34 36 41 45 39 33 28 43 39 31 24 2 21 29 28 27 26 21 24 28 30 30 30 33 40 40 38 35 34 37 35 34 31 30 27 28 27 27 23 15
30 35 36 28 36 44 23 16 22 33 29 27 28 21 37 11 12 17 17 18 24 24 23 31 33 34 38 39 42 46 43 43 46 44 42 39 33 33 31 31 30 29 27 25
20 23 30 21 46 37 8 37 21 52 46 34 9 29 29 16 16 20 17 13 13 9 11 21 30 36 38 42 40 42 44 48 52 50 49 44 39 37 32 32 32 32 31 30
19 22 13 24 22 30 62 34 34 20 62 75 63 50 26 19 23 19 15 14 16 19 14 12 20 32 45 45 48 48 53 60 56 47 50 48 46 44 38 35 35 34 33 31
20 25 11 11 13 45 54 17 31 36 29 20 47 23 15 19 19 13 20 19 24 18 14 21 25 26 37 45 52 62 59 59 55 53 47 51 47 45 42 37 34 33 31 30
24 21 10 13 15 34 23 11 29 31 37 37 26 27 21 16 15 16 20 22 20 28 23 25 27 23 43 47 46 57 65 68 57 53 47 50 48 45 42 40 34 33 32 32
25 27 19 21 24 10 14 18 34 26 34 32 29 22 21 24 26 25 25 25 24 20 25 30 33 33 32 44 62 101 124 71 65 55 47 48 52 47 44 44 42 42 38 37
14 12 26 37 36 29 33 33 19 24 23 27 23 21 23 25 26 26 30 30 26 24 22 23 32 29 27 26 29 51 64 69 62 43 39 41 51 52 50 50 48 46 46 46
7 17 26 34 35 34 32 25 20 22 25 23 22 21 22 23 25 29 31 32 31 26 21 23 24 23 22 20 22 25 21 18 25 26 31 39 50 50 54 53 53 55 47 42
3 15 41 28 34 35 32 28 24 25 26 24 19 20 19 22 26 27 26 32 28 25 22 30 29 25 23 23 28 28 16 17 22 21 35 45 42 42 44 54 55 50 40 38
2 55 42 27 29 31 30 26 24 25 23 20 19 16 21 18 21 24 27 27 29 22 20 21 31 32 30 29 27 25 24 18 27 32 39 39 42 43 54 59 43 42 42 38
23 34 41 26 25 25 23 20 18 19 20 23 26 21 14 15 16 17 20 19 25 27 26 23 28 30 31 32 34 27 28 28 23 31 28 40 45 50 52 41 45 47 37 31
22 28 21 20 21 16 14 12 9 12 24 26 26 20 17 18 16 14 14 15 19 24 26 23 24 26 32 35 44 46 39 35 28 19 27 26 19 21 22 22 21 19 17 12
7 16 21 12 2 9 8 6 8 11 24 22 16 16 15 16 15 15 13 12 16 21 24 25 23 27 28 31 37 38 41 45 43 36 31 19 23 20 10 21 24 30 22 21
6 4 3 2 4 1 2 23 30 25 18 17 10 10 9 4 5 6 13 12 5 4 8 13 16 15 16 19 26 32 36 40 36 41 46 37 27 22 21 15 14 24 8 12
3 7 8 18 15 15 5 15 6 8 10 5 5 6 6 10 8 11 14 14 14 17 25 27 23 20 20 28 27 18 22 28 32 29 36 17 19 16 8 19 14 12 16 27
4 8 10 10 11 12 8 10 6 3 7 5 4 7 14 10 19 14 13 15 18 22 22 15 29 31 30 27 31 31 34 30 30 22 33 25 17 13 14 18 22 11 10 19
4 6 8 12 8 1 5 6 6 5 8 4 7 12 16 5 12 18 22 21 20 17 17 28 33 36 31 31 34 38 37 34 36 27 27 26 21 18 27 23 10 10 27 21
6 7 17 11 6 9 5 6 9 6 7 6 10 10 11 12 15 17 21 17 16 22 37 28 27 20 22 27 33 35 35 35 27 27 26 22 12 14 11 26 26 36 37 32
10 9 15 9 11 18 22 9 15 18 2 4 10 10 16 16 12 11 10 11 19 21 21 24 22 27 26 26 24 20 20 22 16 23 25 13 4 18 30 30 31 31 32 24
15 13 15 16 17 13 17 2 8 9 12 11 8 10 10 6 7 9 7 9 12 17 14 19 24 23 20 14 14 15 13 11 3 5 3 8 19 31 30 24 25 26 26 20
9 12 15 14 15 18 11 3 3 4 6 6 6 2 1 1 5 9 4 12 11 13 18 20 29 24 17 13 17 12 12 9 11 12 15 17 25 28 27 31 29 29 29 27
3 10 14 15 15 10 9 7 4 2 3 3 4 4 2 3 2 4 8 9 10 16 25 24 26 34 44 43 29 27 30 27 22 20 21 27 36 37 37 27 26 28 27 26
11 14 17 20 10 9 10 12 9 10 8 5 5 7 6 5 6 8 6 7 13 5 1 20 22 23 31 32 36 34 34 37 40 39 37 34 33 32 27 26 18 18 18 17
14 17 11 12 16 17 15 16 14 20 12 9 8 10 9 7 7 8 9 10 7 14 13 15 14 8 11 9 15 17 25 22 20 14 10 13 17 16 15 17 16 15 15 16
23 16 11 10 13 12 16 18 17 17 17 15 13 11 8 4 2 3 8 10 5 4 4 5 9 9 6 7 10 9 8 5 10 16 13 11 12 13 13 12 13 15 14 14
Wind_Direction_850mb
283 254 270 280 233 261 243 253 250 122 109 94 72 343 348 151 160 153 151 163 165 178 188 190 183 194 197 200 196 213 196 191 200 184 197 191 199 187 187 177 178 193 179 215
278 273 259 260 253 248 256 241 244 222 135 146 153 126 83 125 159 155 160 174 173 193 199 202 199 198 196 194 198 200 195 193 203 190 200 201 199 191 189 190 193 193 184 182
251 250 264 260 242 261 253 319 264 221 106 69 80 61 60 21 76 118 154 176 181 191 208 211 218 216 210 207 210 203 201 194 212 201 201 201 198 195 197 195 211 208 197 190
281 282 257 340 357 321 269 102 122 108 108 96 29 69 66 39 69 60 40 29 28 80 242 227 227 231 232 224 224 220 204 204 215 209 200 199 201 199 201 198 214 210 208 196
281 272 326 313 11 357 333 69 43 74 133 153 152 131 119 88 56 70 39 12 355 346 331 306 244 242 246 235 223 217 219 220 223 218 208 202 204 201 204 204 209 223 214 208
263 277 215 240 332 322 332 72 23 67 67 66 161 114 83 72 64 51 54 40 25 24 329 301 265 249 243 233 235 227 222 232 222 224 216 208 211 205 204 207 214 217 219 219
240 251 122 179 210 47 328 13 60 45 61 60 64 68 77 59 51 42 38 27 35 38 23 350 321 290 240 239 248 284 267 220 212 221 219 212 214 211 206 209 211 214 219 225
250 252 223 130 101 174 158 62 55 65 67 76 68 56 53 44 35 29 27 27 25 14 354 341 341 334 294 294 293 291 322 210 204 213 214 217 218 216 213 212 213 215 223 227
328 60 81 70 103 82 84 76 64 73 67 63 67 52 47 35 24 20 21 21 18 11 355 333 335 353 349 335 290 283 315 315 212 201 216 217 219 221 218 217 216 219 223 231
355 97 105 103 101 91 93 92 83 69 66 67 47 47 44 35 28 22 21 21 19 17 346 333 350 350 329 325 291 301 316 290 249 215 215 220 222 225 225 225 226 225 228 235
355 199 105 99 104 106 95 75 61 59 52 41 43 18 29 30 29 21 17 11 16 13 0 332 316 350 357 349 327 323 279 269 278 251 237 231 231 235 237 236 232 238 241 245
314 245 95 111 105 98 85 72 64 62 52 40 31 14 25 28 23 19 15 11 19 18 18 329 329 330 326 338 324 317 315 287 249 248 250 242 232 240 245 247 244 253 243 234
268 90 113 111 84 82 85 81 84 83 70 52 33 25 31 3 354 18 7 18 26 27 23 26 352 341 352 7 6 341 315 314 305 267 270 264 254 254 253 248 240 234 232 240
119 120 110 97 99 94 91 90 79 81 88 62 47 44 38 37 25 13 16 29 21 26 28 34 45 35 21 20 26 23 18 17 12 323 287 262 274 258 207 176 165 166 160 147
110 57 99 100 126 148 53 360 327 93 90 80 52 34 24 34 32 35 42 38 57 63 57 49 37 33 32 24 14 14 10 26 29 29 33 58 75 87 70 151 144 149 107 109
101 40 7 188 248 95 30 23 78 89 96 83 70 8 348 350 25 28 39 57 72 342 13 17 18 18 27 17 1 360 2 353 354 23 37 42 11 341 47 46 108 89 126 191
321 306 298 68 49 7 356 63 64 114 104 54 49 8 353 334 332 330 314 296 300 300 304 321 316 303 322 334 341 334 342 338 350 335 345 354 47 85 112 124 146 173 137 129
245 328 332 326 348 81 73 346 242 190 115 125 347 331 336 340 316 319 322 333 312 311 308 310 314 310 305 308 306 318 320 324 336 325 305 302 289 245 273 266 171 169 159 151
210 304 302 308 308 95 181 178 235 246 165 80 345 356 329 340 328 309 304 320 310 314 302 309 308 312 317 314 311 307 305 304 306 318 351 331 289 311 220 196 190 106 127 119
302 295 298 327 312 22 190 193 223 221 50 8 1 344 316 318 341 336 316 306 291 302 299 317 322 332 306 303 298 306 305 302 305 301 312 305 318 330 328 109 114 121 119 129
353 8 31 349 322 266 304 77 45 96 81 4 342 321 303 312 321 309 326 312 321 319 348 350 338 314 314 315 328 323 310 298 283 291 290 307 282 97 113 115 125 132 139 127
25 27 357 336 331 311 312 356 342 20 18 4 310 304 317 360 323 344 330 357 357 5 5 344 336 336 338 5 353 347 358 359 341 5 24 111 130 138 132 126 112 116 110 100
332 337 316 294 316 306 275 127 85 38 8 304 288 262 250 16 12 4 19 16 18 1 15 14 33 32 34 26 22 33 44 38 39 69 118 132 136 124 120 122 117 106 97 102
314 311 305 290 291 266 236 172 188 164 217 261 158 212 178 259 300 350 19 15 63 67 52 47 49 54 44 51 58 65 69 72 82 98 112 122 117 101 98 93 97 89 93 98
280 298 295 278 272 246 204 197 200 189 177 220 196 153 151 51 118 84 100 43 30 39 99 28 54 68 59 54 62 65 67 84 87 88 90 87 84 86 90 98 119 118 111 109
283 286 315 280 248 232 210 209 234 219 187 207 214 210 174 196 158 133 115 131 94 98 88 52 45 69 85 78 105 101 88 85 86 105 101 101 107 108 116 116 118 120 123 117
254 237 272 260 240 225 213 218 224 210 208 203 208 213 220 72 167 221 220 269 220 145 84 74 65 52 81 85 101 80 72 72 68 116 114 126 144 142 142 146 146 136 136 139